Location: Unspecified
(41.1637°N, 24.2901°E)
Time: 11:17:42
(UTC+02:00)

ISS - Pass Details

Date: 09 May 2026
Orbit: 414 x 424 km, 51.6° (Epoch: 12 May)

Event Time Altitude Azimuth Distance (km) Brightness Sun altitude
Exits shadow 01:50:53 19° 50° (NE) 1,080 -1.0 -27.8°
Drops below altitude 10° 01:52:26 10° 74° (ENE) 1,496 -0.5 -27.7°
Sets 01:54:51 0° 90° (E) 2,360 0.4 -27.5°
